{"data":{"norad_id":60376,"intl_designator":"2024-138X","name":"STARLINK-32277","alt_names":[],"object_type":"PAYLOAD","status":"ACTIVE","operator":null,"country":"US","launch_date":"2024-08-04","launch_site_code":"AFWTR","launch_vehicle":null,"mission":null,"orbit_class":"UNKNOWN","rcs_meters":null,"size_class":null,"mass_kg":null,"dimensions":null,"purposes":["comms"],"wikipedia_slug":null,"has_3d_model":false,"image_url":null,"decayed_at":null,"tle_current":{"epoch":"2026-05-25T03:54:41.198976Z","epoch_age_seconds":61109,"freshness":"FRESH","line1":"1 60376U 24138X   26145.16297684  .00001448  00000+0  61018-4 0  9997","line2":"2 60376  53.1629 314.5600 0001157  93.0552 267.0581 15.30194487102337","mean_motion":15.30194487,"eccentricity":0.0001157,"inclination_deg":53.1629,"raan_deg":314.56,"arg_perigee_deg":93.0552,"mean_anomaly_deg":267.0581,"bstar":6.1018e-5,"rev_number":10233,"period_min":94.105684750124,"perigee_km":474.43859555406,"apogee_km":476.02446503198,"semimajor_km":6853.368530293,"source":"CELESTRAK","updated_at":"2026-05-25T13:38:19.242498Z"}}}